Location: Copeville
(33.0796°N, 96.4155°W)
Time: 02:36:33
(UTC+00:00)

ISS - Visible Passes

Search period start: 16 April 2024 00:00
Search period end: 26 April 2024 00:00
Orbit: 413 x 419 km, 51.6° (Epoch: 15 April)

Date Brightness Start Highest point End Pass type
(mag) Time Alt. Az. Time Alt. Az. Time Alt. Az.
16 Apr -1.4 11:18:31 10° S 11:21:03 20° SE 11:23:35 10° ENE visible
17 Apr -0.8 10:31:57 10° SE 10:32:36 10° SE 10:33:16 10° ESE visible
18 Apr -3.6 11:16:59 10° SW 11:20:18 75° SE 11:23:36 10° NE visible
19 Apr -2.5 10:30:08 22° S 10:31:41 35° SE 10:34:45 10° ENE visible
20 Apr -1.3 09:43:39 17° ESE 09:43:39 17° ESE 09:45:28 10° E visible
20 Apr -2.7 11:16:37 10° WSW 11:19:38 31° NW 11:22:39 10° NNE visible
21 Apr -3.6 10:29:55 41° WSW 10:30:50 60° NW 10:34:07 10° NE visible
22 Apr -2.3 09:43:11 37° ENE 09:43:11 37° ENE 09:45:22 10° NE visible
22 Apr -1.4 11:17:22 10° WNW 11:19:05 13° NNW 11:20:47 10° N visible
23 Apr -0.2 08:56:20 10° ENE 08:56:20 10° ENE 08:56:20 10° ENE visible
23 Apr -2.0 10:29:13 19° WNW 10:30:05 21° NW 10:32:40 10° NNE visible
24 Apr -1.9 09:42:16 27° N 09:42:16 27° N 09:44:14 10° NNE visible
25 Apr -0.3 08:55:14 12° NE 08:55:14 12° NE 08:55:33 10° NE visible
